SCOUT X-4 R/B, 933

Orbit data source: Space-Track

SCOUT X-4 R/B, 933 is space debris in LEO originally from a launch on Sat, 21 Nov 1964 UTC launched from the Air Force Western Test Range (AFWTR). Debris objects in space refer to the collection of defunct objects orbiting the Earth. Examples of debris include non-operational satellites, rocket bodies, and fragments generated from explosions, collisions, or faulty payload assembly.

Loading next visibility...
Identifier
933, 1964-076C
Orbit
LEO
Country
Flag of USUS
Related business
Manufacturer
ABL
Mission
Spacecraft
Bus & Motor
ALTAIR, Unknown motor
Mass
33 kg wet, 33 kg dry
Launch date (UTC)
1964-11-21 (61 years ago)
Launch vehicle
Unknown
Launch site
Air Force Western Test Range (AFWTR)
Object type
Payload
Rocket body
Debris
Shape & HBR
Unknown
Radar Cross Section
Medium (>0.1 m² and <1 m²)

Expand to show TLE details & history
Last TLE update: 1 day ago

TLE from 1 day ago
0 SCOUT X-4 R/B
1   933U 64076C   25312.47736350  .00000951  00000-0  31111-3 0  9991
2   933  81.3345 324.3017 1052718 148.2285 218.7005 12.81943606808295
Epoch: 2025-11-08T11:27Z
TLE epoch observation values (Epoch: 2025-11-08T11:27:24.206Z)
Latitude
-0.00002°
Longitude
104.54443°
Altitude
1,999.797 km
Speed
6.596 km/s
True Right ascension
21h 37m 12s
True Declination
0° 00' 00"
Sunlit
Object was in daylight at epoch
Visualization orbit readout
Latitude
Unknown
Longitude
Unknown
Altitude
Unknown
Speed
Unknown
Apparent Right ascension
Unknown
Apparent Declination
Unknown
Sunlit
N/A
Visualization observer readout
Local Sidereal Time
13:26:55
Azimuth
Unknown
Elevation
Unknown
Doppler factor
Unknown
Orbital elements
Apogee altitude
2,142.516 km
Perigee altitude
519.414 km
Semi-major axis
7,709.102 km
Eccentricity
0.10527
Inclination
81.3345°
RAAN
324.3017°
Arg. of periapsis
148.2285°
True anomaly
211.87855°
Mean anomaly
218.7005°
Eccentric anomaly
215.2218°
Mean motion
3.20655 °/min
Orbital period
112.27 mins
BSTAR
0.00031111
Loading maneuver chart data...
Computing Atmospheric mass density...
Loading historical data...
Loading historical data...
Loading historical data...
Loading historical data...
Loading historical data...
Loading historical data...
Loading historical data...

Documentation

Showing up to 5 results
|